Location: Krasnoyarskiy Pitomnik
(51.1333°N, 71.6167°E)
Time: 10:39:54
(UTC+00:00)

Altair - Pass Details

Date: 18 April 2024
Orbit: 1502 x 1682 km, 47.2° (Epoch: 23 May)

Event Time Altitude Azimuth Distance (km) Brightness Sun altitude
Rises 16:25:04 0° 251° (WSW) 4,896 10.5 -17.9°
Reaches altitude 10° 16:28:16 10° 249° (WSW) 3,892 9.9 -18.2°
Maximum altitude 16:38:05 68° 170° (S) 1,708 7.5 -19.3°
Drops below altitude 10° 16:47:32 10° 90° (E) 3,755 9.2 -20.2°
Enters shadow 16:49:07 - 89° (E) 4,255 9.5 -20.4°
